Weather History for Lake Charles, LA

Change the Weather History Date:

Wednesday, November 20, 2013

  Actual Average Record
Temperature  
Mean Temperature 58 °F -  
Max Temperature 73 °F 68 °F 82 °F (2011)
Min Temperature 42 °F 53 °F 33 °F (2000)
Degree Days  
Heating Degree Days 8    
Growing Degree Days 8 (Base 50)    
Moisture  
Dew Point 43 °F    
Average Humidity 68    
Maximum Humidity 95    
Minimum Humidity 31    
Precipitation  
Precipitation 0.00 in - - ()
Sea Level Pressure  
Sea Level Pressure 30.07 in    
Wind  
Wind Speed 5 mph (East)    
Max Wind Speed 8 mph    
Max Gust Speed -    
Visibility 10 miles    
Events      
Averages and records for this station are not official NWS values.
T = Trace of Precipitation, MM = Missing Value Source: NWS Daily Summary

Daily Weather History Graph

Daily Weather History Graph

Search for Another Location

Airport:

Trip Planner

Search our weather history database for the weather conditions in past years. The results will help you decide how hot, cold, wet, or windy it might be!

Date:

Astronomy

Nov. 20, 2013 Rise Set
Actual Time 6:42 AM CST 5:13 PM CST
Civil Twilight 6:16 AM CST 5:39 PM CST
Nautical Twilight 5:47 AM CST 6:08 PM CST
Astronomical Twilight 5:18 AM CST 6:37 PM CST
Moon 7:57 PM CST (11/20) 9:07 AM CST (11/20)
Length of Visible Light 11h 22m
Length of Day
10h 31m
Waning Gibbous, 91% of the Moon is Illuminated
Nov 20
Waning Gibbous
Nov 25
Last Quarter
Dec 2
New
Dec 9
First Quarter
Dec 17
Full

Hourly Weather History & Observations

Time (CST) Temp. Windchill Dew Point Humidity Pressure Visibility Wind Dir Wind Speed Gust Speed Precip Events Conditions
12:15 AM 48.7 °F - 34.7 °F 58% 30.09 in 10.0 mi NE 5.8 mph - N/A   Clear
12:35 AM 48.7 °F - 34.5 °F 58% 30.09 in 10.0 mi ENE 5.8 mph - N/A   Clear
12:55 AM 48.4 °F - 34.9 °F 60% 30.08 in 10.0 mi ENE 3.5 mph - N/A   Clear
1:15 AM 47.7 °F - 36.0 °F 64% 30.08 in 10.0 mi ENE 4.6 mph - N/A   Clear
1:35 AM 47.1 °F - 36.1 °F 66% 30.07 in 10.0 mi ENE 4.6 mph - N/A   Clear
1:55 AM 47.3 °F - 36.0 °F 65% 30.07 in 10.0 mi ENE 4.6 mph - N/A   Clear
2:15 AM 47.3 °F - 35.8 °F 64% 30.07 in 10.0 mi ENE 4.6 mph - N/A   Clear
2:35 AM 46.9 °F - 36.0 °F 66% 30.07 in 10.0 mi East 3.5 mph - N/A   Clear
2:55 AM 45.5 °F 43.2 °F 36.9 °F 72% 30.06 in 10.0 mi ENE 4.6 mph - N/A   Clear
3:15 AM 45.1 °F 43.7 °F 36.9 °F 73% 30.07 in 10.0 mi ENE 3.5 mph - N/A   Clear
3:35 AM 45.7 °F 43.4 °F 36.5 °F 70% 30.07 in 10.0 mi ENE 4.6 mph - N/A   Clear
3:55 AM 45.7 °F 44.4 °F 36.5 °F 70% 30.07 in 10.0 mi ENE 3.5 mph - N/A   Clear
4:15 AM 45.5 °F 43.2 °F 36.3 °F 70% 30.07 in 10.0 mi ENE 4.6 mph - N/A   Clear
4:35 AM 45.5 °F 44.2 °F 36.3 °F 70% 30.07 in 10.0 mi ENE 3.5 mph - N/A   Clear
4:55 AM 45.0 °F 42.6 °F 36.5 °F 72% 30.08 in 10.0 mi ENE 4.6 mph - N/A   Clear
5:15 AM 44.6 °F 42.2 °F 37.0 °F 75% 30.08 in 10.0 mi ENE 4.6 mph - N/A   Clear
5:35 AM 44.6 °F 42.2 °F 36.7 °F 74% 30.08 in 10.0 mi NE 4.6 mph - N/A   Clear
5:55 AM 44.6 °F 43.1 °F 36.7 °F 74% 30.08 in 10.0 mi ENE 3.5 mph - N/A   Clear
6:00 AM 44.6 °F 42.2 °F 39.2 °F 81% 30.08 in 10.0 mi ENE 4.6 mph - N/A   Clear
6:45 AM 42.8 °F - 37.4 °F 81% 30.09 in 10.0 mi Calm Calm - N/A   Clear
8:55 AM 53.6 °F - 39.2 °F 58% 30.11 in 10.0 mi ENE 8.1 mph - N/A   Clear
9:55 AM 59.0 °F - 41.0 °F 51% 30.11 in 10.0 mi ENE 8.1 mph - N/A   Clear
10:50 AM 62.6 °F - 42.8 °F 48% 30.09 in 10.0 mi ENE 8.1 mph - N/A   Clear
11:45 AM 66.2 °F - 42.8 °F 43% 30.07 in 10.0 mi ENE 8.1 mph - N/A   Clear
12:45 PM 69.8 °F - 37.4 °F 31% 30.05 in - Variable 4.6 mph - N/A   Clear
1:55 PM 71.6 °F - 39.2 °F 31% 30.02 in 10.0 mi ESE 3.5 mph - N/A   Clear
2:50 PM 73.4 °F - 41.0 °F 31% 30.01 in 10.0 mi Calm Calm - N/A   Clear
3:50 PM 73.4 °F - 44.6 °F 36% 30.00 in 10.0 mi East 5.8 mph - N/A   Clear
4:50 PM 68.0 °F - 46.4 °F 46% 30.02 in 10.0 mi SE 4.6 mph - N/A   Clear
5:50 PM 62.6 °F - 50.0 °F 63% 30.04 in 10.0 mi Calm Calm - N/A   Clear
6:55 PM 62.6 °F - 53.6 °F 72% 30.05 in 10.0 mi ESE 5.8 mph - N/A   Mostly Cloudy
7:50 PM 62.6 °F - 55.4 °F 77% 30.05 in 10.0 mi ESE 5.8 mph - N/A   Mostly Cloudy
8:50 PM 59.0 °F - 55.4 °F 88% 30.07 in 10.0 mi East 5.8 mph - N/A   Scattered Clouds
9:50 PM 57.2 °F - 53.6 °F 88% 30.07 in 10.0 mi ESE 5.8 mph - N/A   Scattered Clouds
9:55 PM 57.7 °F - 54.5 °F 89% 30.07 in 10.0 mi ESE 5.8 mph - N/A   Scattered Clouds
10:15 PM 57.4 °F - 54.5 °F 90% 30.07 in 10.0 mi East 4.6 mph - N/A   Clear
10:35 PM 57.2 °F - 54.9 °F 92% 30.07 in 10.0 mi East 3.5 mph - N/A   Clear
10:55 PM 58.1 °F - 55.0 °F 90% 30.06 in 10.0 mi ESE 5.8 mph - N/A   Clear
11:15 PM 58.1 °F - 55.4 °F 91% 30.07 in 10.0 mi ESE 4.6 mph - N/A   Clear
11:35 PM 58.1 °F - 55.4 °F 91% 30.07 in 10.0 mi Calm Calm - N/A   Clear
11:55 PM 56.8 °F - 55.4 °F 95% 30.06 in 10.0 mi ESE 3.5 mph - N/A   Clear